Terug naar catalogus

ARIANE 5 DEB

SYLDA

ActiefHEO
NORAD 42743·DEBRIS·🇫🇷 France

Gelanceerd Jun 1, 2017 vanaf Guiana Space Centre

Loading…

Volgende Passages (komende 24 uur)

TLE

VersSource: Space-Track

Epoch: Sep 14, 2026, 03:36 UTC

1 42743U 17029D   26257.15063690  .00056766  00000-0  68622-2 0  9997
2 42743   5.9418 133.4012 6225841  21.0080 356.2010  3.73212451 92200

Volg ARIANE 5 DEB in realtime met AllMySat

Download on the App Store